Time,TemperatureF,DewpointF,PressureIn,WindDirection,WindDirectionDegrees,WindSpeedMPH,WindSpeedGustMPH,Humidity,HourlyPrecipIn,Conditions,Clouds,dailyrainin,SoftwareType,DateUTC
2015-09-02 00:02:00,69.7,68.8,30.00,SSW,205,1.0,2.0,97,0.00,,,0.00,VWS V14.01,2015-09-02 04:02:00,
2015-09-02 00:07:00,69.6,68.7,30.00,SSW,205,1.0,2.0,97,0.00,,,0.00,VWS V14.01,2015-09-02 04:07:00,
2015-09-02 00:12:00,69.5,68.6,29.99,SSW,205,1.0,2.0,97,0.00,,,0.00,VWS V14.01,2015-09-02 04:12:00,
2015-09-02 00:17:00,69.4,68.5,30.00,SSW,205,1.0,2.0,97,0.00,,,0.00,VWS V14.01,2015-09-02 04:17:00,
2015-09-02 00:22:00,69.5,68.6,30.00,SSW,205,1.0,2.0,97,0.00,,,0.00,VWS V14.01,2015-09-02 04:22:00,
2015-09-02 00:27:00,69.4,68.5,30.00,SSW,205,1.0,2.0,97,0.00,,,0.00,VWS V14.01,2015-09-02 04:27:00,
2015-09-02 00:32:00,69.3,68.4,30.00,SSW,205,1.0,2.0,97,0.00,,,0.00,VWS V14.01,2015-09-02 04:32:00,
2015-09-02 00:37:00,69.3,68.7,30.00,SSW,205,1.0,2.0,98,0.00,,,0.00,VWS V14.01,2015-09-02 04:37:00,
2015-09-02 00:42:00,69.3,68.7,30.00,SSW,205,1.0,2.0,98,0.00,,,0.00,VWS V14.01,2015-09-02 04:42:00,
2015-09-02 00:47:00,69.2,68.3,30.00,SSW,205,1.0,2.0,97,0.00,,,0.00,VWS V14.01,2015-09-02 04:47:00,
2015-09-02 00:52:00,69.1,68.5,29.99,SSW,205,1.0,2.0,98,0.00,,,0.00,VWS V14.01,2015-09-02 04:52:00,
2015-09-02 00:57:00,69.1,68.5,29.99,SSW,205,1.0,2.0,98,0.00,,,0.00,VWS V14.01,2015-09-02 04:57:00,
2015-09-02 01:02:00,69.3,68.7,30.00,SSW,205,1.0,2.0,98,0.00,,,0.00,VWS V14.01,2015-09-02 05:02:00,
2015-09-02 01:07:00,69.3,68.7,29.99,SSW,205,1.0,2.0,98,0.00,,,0.00,VWS V14.01,2015-09-02 05:07:00,
2015-09-02 01:12:00,69.1,68.2,30.00,SSW,205,1.0,2.0,97,0.00,,,0.00,VWS V14.01,2015-09-02 05:12:00,
2015-09-02 01:17:00,69.0,68.1,29.99,SSW,205,1.0,2.0,97,0.00,,,0.00,VWS V14.01,2015-09-02 05:17:00,
2015-09-02 01:22:00,68.9,68.0,30.00,SSW,205,1.0,2.0,97,0.00,,,0.00,VWS V14.01,2015-09-02 05:22:00,
2015-09-02 01:28:00,68.8,67.9,29.99,SSW,205,1.0,2.0,97,0.00,,,0.00,VWS V14.01,2015-09-02 05:28:00,
2015-09-02 01:33:00,68.7,67.8,29.99,SSW,205,1.0,2.0,97,0.00,,,0.00,VWS V14.01,2015-09-02 05:33:00,
2015-09-02 01:38:00,68.6,68.0,29.99,SSW,205,1.0,2.0,98,0.00,,,0.00,VWS V14.01,2015-09-02 05:38:00,
2015-09-02 01:43:00,68.6,68.0,29.99,SSW,205,1.0,2.0,98,0.00,,,0.00,VWS V14.01,2015-09-02 05:43:00,
2015-09-02 01:48:00,68.6,68.0,29.99,SSW,205,1.0,2.0,98,0.00,,,0.00,VWS V14.01,2015-09-02 05:48:00,
2015-09-02 01:53:00,68.4,67.5,29.99,SSW,205,1.0,2.0,97,0.00,,,0.00,VWS V14.01,2015-09-02 05:53:00,
2015-09-02 01:58:00,68.3,67.4,29.99,SSW,205,1.0,2.0,97,0.00,,,0.00,VWS V14.01,2015-09-02 05:58:00,
2015-09-02 02:03:00,68.2,67.3,29.99,SSW,205,1.0,2.0,97,0.00,,,0.00,VWS V14.01,2015-09-02 06:03:00,
2015-09-02 02:08:00,68.1,67.5,29.98,SSW,205,1.0,2.0,98,0.00,,,0.00,VWS V14.01,2015-09-02 06:08:00,
2015-09-02 02:13:00,68.2,67.6,29.98,SSW,205,1.0,2.0,98,0.00,,,0.00,VWS V14.01,2015-09-02 06:13:00,
2015-09-02 02:18:00,68.3,67.7,29.98,SSW,205,1.0,2.0,98,0.00,,,0.00,VWS V14.01,2015-09-02 06:18:00,
2015-09-02 02:23:00,68.1,67.5,29.98,SSW,205,1.0,2.0,98,0.00,,,0.00,VWS V14.01,2015-09-02 06:23:00,
2015-09-02 02:28:00,68.1,67.5,29.98,SSW,205,1.0,2.0,98,0.00,,,0.00,VWS V14.01,2015-09-02 06:28:00,
2015-09-02 02:33:00,68.0,67.4,29.98,SSW,205,1.0,2.0,98,0.00,,,0.00,VWS V14.01,2015-09-02 06:33:00,
2015-09-02 02:38:00,67.9,67.3,29.98,SSW,205,1.0,2.0,98,0.00,,,0.00,VWS V14.01,2015-09-02 06:38:00,
2015-09-02 02:43:00,67.8,67.2,29.98,SSW,205,1.0,2.0,98,0.00,,,0.00,VWS V14.01,2015-09-02 06:43:00,
2015-09-02 02:48:00,67.8,67.2,29.98,SSW,205,1.0,2.0,98,0.00,,,0.00,VWS V14.01,2015-09-02 06:48:00,
2015-09-02 02:53:00,67.7,67.1,29.98,SSW,205,1.0,2.0,98,0.00,,,0.00,VWS V14.01,2015-09-02 06:53:00,
2015-09-02 02:58:00,67.7,67.1,29.97,SSW,205,1.0,2.0,98,0.00,,,0.00,VWS V14.01,2015-09-02 06:58:00,
2015-09-02 03:03:00,67.7,67.1,29.98,SSW,205,1.0,2.0,98,0.00,,,0.00,VWS V14.01,2015-09-02 07:03:00,
2015-09-02 03:08:00,67.6,67.0,29.98,SSW,205,1.0,2.0,98,0.00,,,0.00,VWS V14.01,2015-09-02 07:08:00,
2015-09-02 03:13:00,67.5,66.9,29.98,SSW,205,1.0,2.0,98,0.00,,,0.00,VWS V14.01,2015-09-02 07:13:00,
2015-09-02 03:19:00,67.4,66.8,29.98,SSW,205,1.0,2.0,98,0.00,,,0.00,VWS V14.01,2015-09-02 07:19:00,
2015-09-02 03:24:00,67.3,66.7,29.98,SSW,205,1.0,2.0,98,0.00,,,0.00,VWS V14.01,2015-09-02 07:24:00,
2015-09-02 03:29:00,67.3,66.7,29.98,SSW,205,1.0,2.0,98,0.00,,,0.00,VWS V14.01,2015-09-02 07:29:00,
2015-09-02 03:34:00,67.3,67.0,29.98,SSW,205,1.0,2.0,99,0.00,,,0.00,VWS V14.01,2015-09-02 07:34:00,
2015-09-02 03:39:00,67.3,67.0,29.98,SSW,205,1.0,2.0,99,0.00,,,0.00,VWS V14.01,2015-09-02 07:39:00,
2015-09-02 03:44:00,67.2,66.6,29.98,SSW,205,1.0,2.0,98,0.00,,,0.00,VWS V14.01,2015-09-02 07:44:00,
2015-09-02 03:49:00,67.2,66.6,29.98,SSW,205,1.0,2.0,98,0.00,,,0.00,VWS V14.01,2015-09-02 07:49:00,
2015-09-02 03:54:00,67.1,66.5,29.98,SSW,205,1.0,2.0,98,0.00,,,0.00,VWS V14.01,2015-09-02 07:54:00,
2015-09-02 03:59:00,67.0,66.4,29.97,SSW,205,1.0,2.0,98,0.00,,,0.00,VWS V14.01,2015-09-02 07:59:00,
2015-09-02 04:04:00,67.0,66.4,29.97,SSW,205,1.0,2.0,98,0.00,,,0.00,VWS V14.01,2015-09-02 08:04:00,
2015-09-02 04:09:00,67.1,66.8,29.97,SSW,205,1.0,2.0,99,0.00,,,0.00,VWS V14.01,2015-09-02 08:09:00,
2015-09-02 04:14:00,67.1,66.8,29.97,SSW,205,1.0,2.0,99,0.00,,,0.00,VWS V14.01,2015-09-02 08:14:00,
2015-09-02 04:19:00,67.1,66.8,29.97,SSW,205,1.0,2.0,99,0.00,,,0.00,VWS V14.01,2015-09-02 08:19:00,
2015-09-02 04:24:00,67.0,66.4,29.97,SSW,205,1.0,2.0,98,0.00,,,0.00,VWS V14.01,2015-09-02 08:24:00,
2015-09-02 04:29:00,66.8,66.2,29.97,SSW,205,1.0,2.0,98,0.00,,,0.00,VWS V14.01,2015-09-02 08:29:00,
2015-09-02 04:34:00,66.7,66.1,29.97,SSW,205,1.0,2.0,98,0.00,,,0.00,VWS V14.01,2015-09-02 08:34:00,
2015-09-02 04:39:00,66.6,66.0,29.97,SSW,205,1.0,2.0,98,0.00,,,0.00,VWS V14.01,2015-09-02 08:39:00,
2015-09-02 04:44:00,66.5,65.9,29.97,SSW,205,1.0,2.0,98,0.00,,,0.00,VWS V14.01,2015-09-02 08:44:00,
2015-09-02 04:49:00,66.5,66.2,29.97,SSW,205,1.0,2.0,99,0.00,,,0.00,VWS V14.01,2015-09-02 08:49:00,
2015-09-02 04:54:00,66.6,66.3,29.97,SSW,205,1.0,2.0,99,0.00,,,0.00,VWS V14.01,2015-09-02 08:54:00,
2015-09-02 05:00:00,66.6,66.3,29.97,SSW,205,1.0,2.0,99,0.00,,,0.00,VWS V14.01,2015-09-02 09:00:00,
2015-09-02 05:05:00,66.5,66.2,29.98,SSW,205,1.0,2.0,99,0.00,,,0.00,VWS V14.01,2015-09-02 09:05:00,
2015-09-02 05:10:00,66.4,66.1,29.98,SSW,205,1.0,2.0,99,0.00,,,0.00,VWS V14.01,2015-09-02 09:10:00,
2015-09-02 05:15:00,66.3,66.0,29.98,SSW,205,1.0,2.0,99,0.00,,,0.00,VWS V14.01,2015-09-02 09:15:00,
2015-09-02 05:20:00,66.2,65.9,29.98,SSW,205,1.0,2.0,99,0.00,,,0.00,VWS V14.01,2015-09-02 09:20:00,
2015-09-02 05:25:00,66.2,65.9,29.98,SSW,205,1.0,2.0,99,0.00,,,0.00,VWS V14.01,2015-09-02 09:25:00,
2015-09-02 05:30:00,66.2,65.9,29.98,SSW,205,1.0,2.0,99,0.00,,,0.00,VWS V14.01,2015-09-02 09:30:00,
2015-09-02 05:35:00,66.2,65.9,29.97,SSW,205,1.0,2.0,99,0.00,,,0.00,VWS V14.01,2015-09-02 09:35:00,
2015-09-02 05:40:00,66.1,65.8,29.97,SSW,205,1.0,2.0,99,0.00,,,0.00,VWS V14.01,2015-09-02 09:40:00,
2015-09-02 05:45:00,66.0,65.7,29.97,SSW,205,1.0,2.0,99,0.00,,,0.00,VWS V14.01,2015-09-02 09:45:00,
2015-09-02 05:50:00,65.9,65.6,29.97,SSW,205,1.0,2.0,99,0.00,,,0.00,VWS V14.01,2015-09-02 09:50:00,
2015-09-02 05:55:00,65.9,65.6,29.97,SSW,205,1.0,2.0,99,0.00,,,0.00,VWS V14.01,2015-09-02 09:55:00,
2015-09-02 06:00:00,65.9,65.6,29.97,SSW,205,1.0,2.0,99,0.00,,,0.00,VWS V14.01,2015-09-02 10:00:00,
2015-09-02 06:05:00,66.0,65.7,29.97,SSW,205,1.0,2.0,99,0.00,,,0.00,VWS V14.01,2015-09-02 10:05:00,
2015-09-02 06:10:00,66.1,66.1,29.97,SSW,205,1.0,2.0,100,0.00,,,0.00,VWS V14.01,2015-09-02 10:10:00,
2015-09-02 06:15:00,66.2,66.2,29.98,SSW,205,1.0,2.0,100,0.00,,,0.00,VWS V14.01,2015-09-02 10:15:00,
2015-09-02 06:20:00,66.0,65.7,29.98,SSW,205,1.0,2.0,99,0.00,,,0.00,VWS V14.01,2015-09-02 10:20:00,
2015-09-02 06:25:00,65.8,65.5,29.98,SSW,205,1.0,2.0,99,0.00,,,0.00,VWS V14.01,2015-09-02 10:25:00,
2015-09-02 06:30:00,65.8,65.5,29.98,SSW,205,1.0,2.0,99,0.00,,,0.00,VWS V14.01,2015-09-02 10:30:00,
2015-09-02 06:35:00,65.7,65.4,29.98,SSW,205,1.0,2.0,99,0.00,,,0.00,VWS V14.01,2015-09-02 10:35:00,
2015-09-02 06:40:00,65.7,65.4,29.98,SSW,205,1.0,2.0,99,0.00,,,0.00,VWS V14.01,2015-09-02 10:40:00,
2015-09-02 06:45:00,65.7,65.4,29.98,SSW,205,1.0,2.0,99,0.00,,,0.00,VWS V14.01,2015-09-02 10:45:00,
2015-09-02 06:50:00,65.6,65.3,29.98,SSW,205,1.0,2.0,99,0.00,,,0.00,VWS V14.01,2015-09-02 10:50:00,
2015-09-02 06:56:00,65.5,65.2,29.98,SSW,205,1.0,2.0,99,0.00,,,0.00,VWS V14.01,2015-09-02 10:56:00,
2015-09-02 07:01:00,65.5,65.2,29.98,SSW,205,1.0,2.0,99,0.00,,,0.00,VWS V14.01,2015-09-02 11:01:00,
2015-09-02 07:06:00,65.4,65.1,29.98,SSW,205,1.0,2.0,99,0.00,,,0.00,VWS V14.01,2015-09-02 11:06:00,
2015-09-02 07:11:00,65.4,65.1,29.98,SSW,205,1.0,2.0,99,0.00,,,0.00,VWS V14.01,2015-09-02 11:11:00,
2015-09-02 07:16:00,65.3,65.0,29.98,SSW,205,1.0,2.0,99,0.00,,,0.00,VWS V14.01,2015-09-02 11:16:00,
2015-09-02 07:21:00,65.3,65.0,29.98,SSW,205,1.0,2.0,99,0.00,,,0.00,VWS V14.01,2015-09-02 11:21:00,
2015-09-02 07:26:00,65.5,65.2,29.98,SSW,205,1.0,2.0,99,0.00,,,0.00,VWS V14.01,2015-09-02 11:26:00,
2015-09-02 07:31:00,65.7,65.7,29.98,SSW,205,1.0,3.0,100,0.00,,,0.00,VWS V14.01,2015-09-02 11:31:00,
2015-09-02 07:36:00,65.8,65.8,29.99,SSW,205,1.0,2.0,100,0.00,,,0.00,VWS V14.01,2015-09-02 11:36:00,
2015-09-02 07:41:00,65.7,65.7,29.99,SSW,205,1.0,2.0,100,0.00,,,0.00,VWS V14.01,2015-09-02 11:41:00,
2015-09-02 07:46:00,65.8,65.8,30.00,SSW,205,1.0,2.0,100,0.00,,,0.00,VWS V14.01,2015-09-02 11:46:00,
2015-09-02 07:51:00,65.9,65.9,30.00,SSW,205,1.0,2.0,100,0.00,,,0.00,VWS V14.01,2015-09-02 11:51:00,
2015-09-02 07:56:00,66.2,66.2,30.00,SSW,205,1.0,2.0,100,0.00,,,0.00,VWS V14.01,2015-09-02 11:56:00,
2015-09-02 08:01:00,66.4,66.4,30.00,SSW,205,1.0,2.0,100,0.00,,,0.00,VWS V14.01,2015-09-02 12:01:00,
2015-09-02 08:06:00,66.6,66.6,30.00,SSW,205,1.0,2.0,100,0.00,,,0.00,VWS V14.01,2015-09-02 12:06:00,
2015-09-02 08:11:00,66.8,66.8,30.00,SSW,205,1.0,2.0,100,0.00,,,0.00,VWS V14.01,2015-09-02 12:11:00,
2015-09-02 08:16:00,67.4,67.4,30.00,SSW,205,1.0,2.0,100,0.00,,,0.00,VWS V14.01,2015-09-02 12:16:00,
2015-09-02 08:21:00,67.7,67.7,30.00,SSW,205,1.0,2.0,100,0.00,,,0.00,VWS V14.01,2015-09-02 12:21:00,
2015-09-02 08:26:00,68.3,68.3,30.00,SSW,205,1.0,2.0,100,0.00,,,0.00,VWS V14.01,2015-09-02 12:26:00,
2015-09-02 08:36:00,69.2,69.2,30.01,SSW,205,1.0,3.0,100,0.00,,,0.00,VWS V14.01,2015-09-02 12:36:00,
2015-09-02 08:42:00,69.7,69.7,30.01,SSW,205,1.0,3.0,100,0.00,,,0.00,VWS V14.01,2015-09-02 12:42:00,
2015-09-02 08:47:00,70.2,70.2,30.01,SSW,205,2.0,3.0,100,0.00,,,0.00,VWS V14.01,2015-09-02 12:47:00,
2015-09-02 08:52:00,70.7,70.7,30.01,SSW,205,2.0,5.0,100,0.00,,,0.00,VWS V14.01,2015-09-02 12:52:00,
2015-09-02 08:57:00,71.1,71.1,30.01,SSW,205,1.0,5.0,100,0.00,,,0.00,VWS V14.01,2015-09-02 12:57:00,
2015-09-02 09:02:00,71.4,71.4,30.00,SSW,198,1.0,5.0,100,0.00,,,0.00,VWS V14.01,2015-09-02 13:02:00,
2015-09-02 09:07:00,71.6,71.3,30.00,SSW,198,1.0,3.0,99,0.00,,,0.00,VWS V14.01,2015-09-02 13:07:00,
2015-09-02 09:12:00,71.9,71.3,30.01,SSE,151,3.0,5.0,98,0.10,,,0.10,VWS V14.01,2015-09-02 13:12:00,
2015-09-02 09:17:00,71.8,71.2,30.00,SE,146,1.0,5.0,98,0.17,,,0.17,VWS V14.01,2015-09-02 13:17:00,
2015-09-02 09:22:00,71.5,70.9,30.00,SE,146,1.0,5.0,98,0.17,,,0.17,VWS V14.01,2015-09-02 13:22:00,
2015-09-02 09:27:00,71.4,70.8,30.00,SE,146,1.0,5.0,98,0.17,,,0.17,VWS V14.01,2015-09-02 13:27:00,
2015-09-02 09:32:00,71.5,71.2,30.00,SE,146,1.0,5.0,99,0.17,,,0.17,VWS V14.01,2015-09-02 13:32:00,
2015-09-02 09:37:00,71.5,71.2,29.99,SE,146,1.0,3.0,99,0.17,,,0.17,VWS V14.01,2015-09-02 13:37:00,
2015-09-02 09:40:00,71.5,71.2,29.99,SE,146,1.0,3.0,99,0.17,,,0.17,VWS V14.01,2015-09-02 13:40:00,
2015-09-02 09:42:00,71.5,71.2,29.99,SE,146,1.0,3.0,99,0.17,,,0.17,VWS V14.01,2015-09-02 13:42:00,
2015-09-02 09:45:00,71.5,71.2,29.99,SE,146,1.0,3.0,99,0.17,,,0.17,VWS V14.01,2015-09-02 13:45:00,
2015-09-02 09:50:00,71.4,71.1,29.99,SW,223,3.0,4.0,99,0.17,,,0.17,VWS V14.01,2015-09-02 13:50:00,
2015-09-02 09:55:00,71.5,71.2,29.99,SW,223,2.0,4.0,99,0.17,,,0.17,VWS V14.01,2015-09-02 13:55:00,
2015-09-02 10:00:00,71.6,71.3,29.99,South,190,2.0,4.0,99,0.17,,,0.17,VWS V14.01,2015-09-02 14:00:00,
2015-09-02 10:05:00,71.7,71.4,29.99,SSW,192,1.0,4.0,99,0.17,,,0.17,VWS V14.01,2015-09-02 14:05:00,
2015-09-02 10:10:00,71.8,71.5,29.99,SSW,192,2.0,4.0,99,0.17,,,0.17,VWS V14.01,2015-09-02 14:10:00,
2015-09-02 10:16:00,71.9,71.6,29.99,SSW,192,1.0,4.0,99,0.17,,,0.17,VWS V14.01,2015-09-02 14:16:00,
2015-09-02 10:21:00,72.2,72.2,29.99,SSW,192,2.0,4.0,100,0.17,,,0.17,VWS V14.01,2015-09-02 14:21:00,
2015-09-02 10:26:00,72.7,72.7,29.99,SSW,192,1.0,4.0,100,0.17,,,0.17,VWS V14.01,2015-09-02 14:26:00,
2015-09-02 10:31:00,72.9,72.9,29.99,SSW,192,1.0,4.0,100,0.17,,,0.17,VWS V14.01,2015-09-02 14:31:00,